Regional Weather Roundup
Issued by NWS

Home | Current Version | Previous Version | Text Only | Print | Product List | Glossary Off
Versions: 1 2 3 4 5 6 7 8 9 10 11 12 13 14 15 16 17 18 19 20 21 22 23 24 25 26 27 28 29 30 31 32 33 34 35 36 37 38 39 40 41 42 43 44 45 46 47 48 49 50

000
ASUS43 KMKX 210320
RWRWI

WISCONSIN REGIONAL WEATHER ROUNDUP
NATIONAL WEATHER SERVICE MILWAUKEE/SULLIVAN WI
900 PM CST MON NOV 20 2017

NOTE: "FAIR" INDICATES FEW OR NO CLOUDS BELOW 12,000 FEET WITH NO
SIGNIFICANT WEATHER AND/OR OBSTRUCTIONS TO VISIBILITY.

WIZ001-002-006>008-014>016-023>028-210400-
NORTHWEST WISCONSIN

CITY           SKY/WX    TMP DP  RH WIND       PRES   REMARKS
SUPERIOR ARPT  CLOUDY    36  28  75 SW7       29.30F WCI  30
ASHLAND        CLOUDY    41  28  60 SW15      29.32R
HAYWARD        CLOUDY    40  28  62 SW8       29.36R WCI  34
SIREN          CLOUDY    41  28  59 SW9G18    29.39S
CUMBERLAND     CLEAR     37  28  70 SW9       29.41S WCI  31
RICE LAKE      CLEAR     40  30  65 SW8       29.43R
CHETEK         CLEAR     41  30  65 SW9       29.42R
LADYSMITH      CLEAR     39  30  70 MISG      29.42R
EAU CLAIRE     CLEAR     44  28  53 SW13      29.44F
MENOMONIE      CLEAR     43  28  56 SW12G18   29.46R
NEW RICHMOND   CLEAR     38  27  63 SW9       29.45S WCI  32
OSCEOLA        CLEAR     39  28  65 SW8       29.47S WCI  33
$$

WIZ003>005-009-010-017-018-210400-
NORTH CENTRAL WISCONSIN

CITY           SKY/WX    TMP DP  RH WIND       PRES   REMARKS
MANITOWISH WTR CLEAR     38  31  75 SW14      29.31F WCI  30
ARBOR VITAE    CLEAR     42  32  70 SW9       29.32F
WOODRUFF       CLEAR     42  32  70 SW9       29.32F
RHINELANDER    CLEAR     40  31  70 SW13G23   29.36F WCI  32
EAGLE RIVER    CLEAR     39  29  65 SW14G22   29.31F WCI  31
LAND O LAKES   CLEAR     39  30  71 SW12G18   29.31F WCI  32
PHILLIPS       CLEAR     40  30  67 SW13G20   29.37R WCI  33
TOMAHAWK       CLEAR     40  30  67 SW7       29.38S
MEDFORD        CLEAR     40  30  67 SW9       29.40F WCI  34
MERRILL        CLEAR     39  31  71 SW7       29.40F WCI  34
$$

WIZ029-030-035-036-043>047-210400-
CENTRAL WISCONSIN

CITY           SKY/WX    TMP DP  RH WIND       PRES   REMARKS
WAUSAU         PTCLDY    41  30  65 SW9       29.41S
MOSINEE        CLOUDY    39  30  70 SW10      29.44S WCI  32
MARSHFIELD     CLEAR     44  29  55 SW13      29.42F
STEVENS POINT  PTCLDY    45  29  54 SW10G21   29.45S
WAUPACA        CLOUDY    49  31  49 S9        29.46F
WAUTOMA        PTCLDY    50  29  44 SW13      29.48F
WISC RAPIDS    PTCLDY    46  31  55 SW10      29.47S
CAMP DOUGLAS   MOCLDY    50  30  46 SW14G22   29.49F
$$

WIZ011>013-019>022-031-037>040-048>050-210400-
NORTHEAST WISCONSIN

CITY           SKY/WX    TMP DP  RH WIND       PRES   REMARKS
ANTIGO         CLOUDY    40  31  69 SW14G20   29.39F WCI  33
SHAWANO        CLOUDY    46  32  57 SW8       29.42F
OCONTO         CLOUDY    47  32  55 SW14G22   29.42F
STURGEON BAY   CLOUDY    50  33  52 SW21G32   29.42F
GREEN BAY      PTCLDY    47  35  63 SW13G23   29.45F
MANITOWOC      CLOUDY    51  32  48 SW24G33   29.49F
APPLETON       MOCLDY    46  28  49 SW17G24   29.45F
CLINTONVILLE   CLOUDY    45  30  57 SW14      29.43F
OSHKOSH        CLOUDY    47  33  58 SW18G32   29.48F
$$

WIZ032>034-041-042-053>061-210400-
SOUTHWEST WISCONSIN

CITY           SKY/WX    TMP DP  RH WIND       PRES   REMARKS
LA CROSSE      PTCLDY    52  29  41 SW15      29.51R
SPARTA         CLEAR     50  30  46 W6        29.51R
VIROQUA        PTCLDY    47  32  55 SW12G17   29.53S
BOSCOBEL       CLOUDY    52  30  43 SW10G21   29.56F
PRAIRIE DU CHI CLOUDY    51  28  41 S7        29.57S
PLATTEVILLE    CLOUDY    49  33  52 SW18      29.60F
$$

WIZ056-057-062-063-064-067-068-210400-
SOUTH CENTRAL WISCONSIN

CITY           SKY/WX    TMP DP  RH WIND       PRES   REMARKS
REEDSBURG      CLOUDY    50  30  46 SW14G24   29.52F
BARABOO/DELLS  CLOUDY    50  28  43 SW17G28   29.52F
LONE ROCK      MOCLDY    52  32  46 SW15G23   29.55F
MINERAL POINT  CLOUDY    50  32  50 SW17G26   29.57F
MADISON        MOCLDY    48  32  53 SW18      29.56F
MIDDLETON      PTCLDY    51  31  47 SW16G23   29.56F
WATERTOWN      MOCLDY    49  32  52 S18G28    29.57F
MONROE         PTCLDY    46  32  57 S22       29.60F
JANESVILLE     PTCLDY    50  30  46 SW16G29   29.63F
$$

WIZ051-052-058>065-066-070>072-210400-
SOUTHEAST WISCONSIN

CITY           SKY/WX    TMP DP  RH WIND       PRES   REMARKS
MILWAUKEE      MOCLDY    48  33  56 SW18G32   29.62F
WAUKESHA       CLEAR     45  32  61 SW16G25   29.62F
MILWAUKEE/TIMM CLEAR     46  30  53 SW18G28   29.61F
RACINE         CLOUDY    48  32  53 SW20G32   29.65F
BURLINGTON     MOCLDY    46  38  72 S22G29    29.64F
KENOSHA        CLOUDY    47  31  53 SW24G38   29.65F
FOND DU LAC    PTCLDY    50  31  48 SW21G33   29.51F
SHEBOYGAN      LGT RAIN  50  33  52 SW21G33   29.52F
WEST BEND      PTCLDY    46  30  53 SW21G29   29.55F
JUNEAU         CLOUDY    47  33  56 S21G30    29.56F
$$

LSZ147-162-210400-
LAKE SUPERIOR

STATION/POSITION TIME  TEMP    WIND        PRES    WAVE
                       AIR SEA DIR/SP/G            HT/PER
                 (UTC) (F)     (DEG/KT/KT) (MB)    (FT/S)
DEVILS ISLAND    0300   41     230/ 24/ 28  990.9F
SAXON HARBOR     0240   43     200/ 10/ 15  992.6R
$$

LMZ867-665-643>646-210400-
LAKE MICHIGAN

STATION/POSITION TIME  TEMP    WIND        PRES    WAVE
                       AIR SEA DIR/SP/G            HT/PER
                 (UTC) (F)     (DEG/KT/KT) (MB)    (FT/S)
N MID LAKE BUOY  0250   49 48  200/ 29/ 33  996.4F  10/ 8
NORTHPORT PIER   0240   44     170/  7/ 18  996.3F
KEWAUNEE LAKESHO 0300   52     220/ 16/ 21  997.4
SHEBOYGAN LAKESH 0300   51     210/ 25/ 28  999.7F
PORT WASHINGTON  0230   52     210/ 14/ 20 1002.4F
MILWAUKEE LAKESH 0300   49     210/ 24/ 28   N/A
S MID LAKE BUOY  0250   48 48  230/ 27/ 35 1005.0F   9/ 7
KENOSHA   LAKESH 0300   48     210/ 15/ 29 1004.4
$$

TC  - TEMPERATURE IN CELSIUS
VSB - VISIBILITY IN STATUTE MILES
WCI - WIND CHILL INDEX
HX  - HEAT INDEX





USA.gov is the U.S. government's official web portal to all federal, state and local government web resources and services.